This demonstration page uses our WeatherBlox Daily Observations layout. Learn more.

Left ArrowRight Arrow

Hourly Observations for February 1, 2020

Temp ( °F °C ) Dew Point ( °F °C ) Humidity (%) Winds ( mph kmh ) Pressure ( in mb ) Visibility ( mi km ) Precip ( " mm )
12:16 am 00:16 Cloudy with Light Rain 43 6.1 41 5 93 93 NE 7 11 30.12 1020 7 11 0.00 0.00
12:59 am 00:59 Cloudy with Light Rain 43 6.1 41 5 93 93 Calm 30.10 1019 6 10 0.08 2.03
1:23 am 01:23 Cloudy with Light Rain 43 6.1 41 5 93 93 NE 5 7 30.08 1019 6 10 0.00 0.00
1:59 am 01:59 Cloudy 43 6.1 41 5 93 93 NE 6 9 30.07 1018 7 11 0.07 1.78
2:59 am 02:59 Cloudy with Light Rain 43 6.1 42 5.6 97 97 NNE 5 7 30.06 1018 6 10 0.05 1.27
3:59 am 03:59 Cloudy 43 6.1 41 5 93 93 N 9 15 30.02 1017 8 13 0.03 0.76
4:27 am 04:27 Cloudy with Light Rain 43 6.1 41 5 93 93 N 9 15 30.01 1016 7 11 0.00 0.00
4:59 am 04:59 Cloudy with Light Rain 43 6.1 41 5 93 93 N 9 15 30.00 1016 6 10 0.03 0.76
5:59 am 05:59 Cloudy with Light Rain 44 6.7 42 5.6 93 93 N 7 11 29.99 1016 5 8 0.05 1.27
6:59 am 06:59 Cloudy with Mist and Fog 44 6.7 42 5.6 93 93 N 9 15 29.98 1015 4 6 0.00 0.00
7:09 am 07:09 Cloudy with Mist and Fog 44 6.7 42 5.6 93 93 N 9 15 29.98 1015 2 2 0.00 0.00
7:12 am 07:12 Cloudy with Mist and Fog 44 6.7 42 5.6 93 93 N 12 19 29.98 1015 2 3 0.00 0.00
7:30 am 07:30 Cloudy with Mist and Fog 44 6.7 42 5.6 93 93 N 10 17 29.98 1015 2 3 0.00 0.00
7:35 am 07:35 Cloudy with Mist and Fog 44 6.7 42 5.6 93 93 NNE 10 17 29.98 1015 2 2 0.00 0.00
7:43 am 07:43 Cloudy with Mist and Fog 44 6.7 43 6.1 96 96 N 9 15 29.98 1015 1 1 0.00 0.00
7:59 am 07:59 Cloudy with Mist and Fog 44 6.7 42 5.6 93 93 N 12 19 29.97 1015 1 2 0.00 0.00
8:16 am 08:16 Cloudy with Mist and Fog 44 6.7 43 6.1 96 96 N 9 15 29.97 1015 1 2 0.00 0.00
8:32 am 08:32 Cloudy with Mist and Fog 44 6.7 43 6.1 96 96 N 10 17 29.97 1015 2 3 0.00 0.00
8:59 am 08:59 Cloudy with Mist and Fog 45 7.2 43 6.1 93 93 N 10 17 29.96 1015 2 3 0.00 0.00
9:06 am 09:06 Cloudy with Mist and Fog 45 7.2 43 6.1 93 93 N 12 19 29.95 1014 2 3 0.00 0.00
9:22 am 09:22 Cloudy with Mist and Fog 45 7.2 43 6.1 93 93 N 12 19 29.95 1014 3 4 0.00 0.00
9:59 am 09:59 Cloudy with Mist and Fog 44 6.7 43 6.1 96 96 N 10 17 29.95 1014 4 6 0.00 0.00
10:59 am 10:59 Cloudy with Mist and Fog 44 6.7 42 5.6 93 93 NNE 9 15 29.93 1013 4 6 0.00 0.00
11:59 am 11:59 Cloudy with Mist and Fog 44 6.7 42 5.6 93 93 N 10 17 29.90 1012 6 10 0.00 0.00
12:13 pm 12:13 Cloudy 45 7.2 42 5.6 90 90 N 9 15 29.89 1012 7 11 0.00 0.00
12:23 pm 12:23 Cloudy 46 7.8 42 5.6 86 86 N 12 19 29.88 1012 7 11 0.00 0.00
12:59 pm 12:59 Partly Cloudy 48 8.9 43 6.1 83 83 N 9 15 29.87 1011 8 13 0.00 0.00
1:59 pm 13:59 Partly Cloudy 50 10 42 5.6 74 74 NNE 7 11 29.84 1011 10 16 0.00 0.00
2:59 pm 14:59 Mostly Cloudy 47 8.3 39 3.9 74 74 NNE 9 15 29.81 1010 10 16 0.00 0.00
3:59 pm 15:59 Cloudy 46 7.8 38 3.3 73 73 NE 7 11 29.81 1009 10 16 0.00 0.00
4:59 pm 16:59 Cloudy 46 7.8 39 3.9 77 77 NNW 6 9 29.81 1010 10 16 0.00 0.00
5:59 pm 17:59 Cloudy 44 6.7 41 5 89 89 Calm 29.81 1009 10 16 0.00 0.00
6:59 pm 18:59 Cloudy with Light Rain 44 6.7 41 5 89 89 SSW 3 6 29.81 1009 10 16 0.00 0.00
7:59 pm 19:59 Cloudy with Light Rain 46 7.8 42 5.6 86 86 W 5 7 29.80 1009 10 16 0.00 0.00
8:59 pm 20:59 Cloudy with Light Rain 45 7.2 42 5.6 90 90 WSW 6 9 29.79 1009 10 16 0.00 0.00
9:59 pm 21:59 Cloudy 45 7.2 42 5.6 90 90 WSW 6 9 29.79 1009 8 13 0.00 0.00
10:59 pm 22:59 Cloudy 44 6.7 42 5.6 93 93 WSW 7 11 29.78 1008 8 13 0.00 0.00
11:59 pm 23:59 Cloudy 44 6.7 41 5 89 89 WSW 9 15 29.76 1008 9 14 0.00 0.00

Powered by AerisWeather